THY3GK LTFM-LIRF

Flight info

Callsign THY3GK
Flight time 2h 0m
Altitude 40000
Route BARPE1D/35L BARPE UM603 SUTIS DCT DISOR DCT ENFAR DCT RETRA DCT KATTI DCT ESODU Z924 MOPUV
Aircraft A333/H-SDE3GHIJ2J3J5M1RVWXY/LB2D1

Departure

Time 2026-05-04 13:47
Airport İstanbul Airport (LTFM)

Arrival

Time 2026-05-04 15:48
Airport Rome–Fiumicino Leonardo da Vinci International Airport (LIRF)
Time Latitude Longitude Altitude Speed Heading
2026-05-04 13:07 41.26141 28.73639 343 ft 0 kts 108°
2026-05-04 13:31 41.26144 28.73627 343 ft 2 kts 108°
2026-05-04 13:31 41.26147 28.73615 342 ft 2 kts 108°
2026-05-04 13:31 41.26150 28.73596 342 ft 2 kts 95°
2026-05-04 13:32 41.26150 28.73577 342 ft 2 kts 84°
2026-05-04 13:32 41.26148 28.73557 342 ft 2 kts 72°
2026-05-04 13:32 41.26142 28.73539 342 ft 2 kts 60°
2026-05-04 13:32 41.26134 28.73523 342 ft 2 kts 49°
2026-05-04 13:33 41.26123 28.73509 342 ft 2 kts 38°
2026-05-04 13:33 41.26111 28.73498 342 ft 2 kts 26°
2026-05-04 13:33 41.26100 28.73493 342 ft 0 kts 17°
2026-05-04 13:33 41.26096 28.73491 342 ft 0 kts 16°
2026-05-04 13:39 41.26104 28.73494 342 ft 2 kts 16°
2026-05-04 13:40 41.26128 28.73503 342 ft 4 kts 15°
2026-05-04 13:40 41.26162 28.73511 342 ft 5 kts 359°
2026-05-04 13:40 41.26198 28.73482 342 ft 6 kts 299°
2026-05-04 13:40 41.26211 28.73418 342 ft 6 kts 272°
2026-05-04 13:41 41.26209 28.73354 342 ft 7 kts 270°
2026-05-04 13:41 41.26210 28.73284 342 ft 7 kts 270°
2026-05-04 13:41 41.26209 28.73205 342 ft 8 kts 268°
2026-05-04 13:42 41.26205 28.73033 342 ft 9 kts 269°
2026-05-04 13:42 41.26205 28.73004 342 ft 0 kts 269°
2026-05-04 13:43 41.26205 28.72986 342 ft 3 kts 270°
2026-05-04 13:43 41.26205 28.72942 342 ft 6 kts 271°
2026-05-04 13:43 41.26205 28.72876 342 ft 8 kts 270°
2026-05-04 13:44 41.26205 28.72790 342 ft 10 kts 269°
2026-05-04 13:44 41.26202 28.72698 342 ft 8 kts 269°
2026-05-04 13:44 41.26202 28.72621 342 ft 8 kts 271°
2026-05-04 13:44 41.26214 28.72552 342 ft 7 kts 310°
2026-05-04 13:45 41.26260 28.72526 342 ft 7 kts 352°
2026-05-04 13:45 41.26291 28.72523 342 ft 0 kts 360°
2026-05-04 13:46 41.26294 28.72523 342 ft 8 kts 360°
2026-05-04 13:46 41.26599 28.72513 343 ft 80 kts 360°
2026-05-04 13:47 41.27399 28.72489 344 ft 145 kts
2026-05-04 13:47 41.28504 28.72554 768 ft 169 kts
2026-05-04 13:47 41.29682 28.72570 1615 ft 170 kts 358°
2026-05-04 13:47 41.30795 28.72536 2616 ft 165 kts 359°
2026-05-04 13:48 41.31988 28.72513 3265 ft 179 kts 359°
2026-05-04 13:48 41.33234 28.72488 4079 ft 184 kts 359°
2026-05-04 13:48 41.34561 28.72458 4698 ft 200 kts 358°
2026-05-04 13:48 41.35960 28.72087 5270 ft 220 kts 338°
2026-05-04 13:49 41.37239 28.70870 5902 ft 235 kts 315°
2026-05-04 13:49 41.38041 28.68883 6451 ft 257 kts 290°
2026-05-04 13:49 41.38152 28.66447 7122 ft 271 kts 277°
2026-05-04 13:49 41.38474 28.64078 7812 ft 259 kts 306°
2026-05-04 13:50 41.39674 28.62470 8548 ft 245 kts 339°
2026-05-04 13:50 41.41286 28.61828 9302 ft 244 kts 347°
2026-05-04 13:50 41.42765 28.60663 9946 ft 263 kts 317°
2026-05-04 13:50 41.43562 28.58392 10563 ft 291 kts 287°
2026-05-04 13:51 41.43375 28.55539 10882 ft 330 kts 257°
2026-05-04 13:51 41.42267 28.52746 11208 ft 353 kts 245°
2026-05-04 13:51 41.41051 28.49845 11520 ft 369 kts 249°
2026-05-04 13:51 41.39957 28.46708 11973 ft 378 kts 253°
2026-05-04 13:52 41.38116 28.40082 13362 ft 384 kts 258°
2026-05-04 13:52 41.37300 28.36725 14027 ft 388 kts 259°
2026-05-04 13:52 41.36494 28.33251 14692 ft 392 kts 258°
2026-05-04 13:53 41.35710 28.29791 15328 ft 396 kts 258°
2026-05-04 13:53 41.34925 28.26285 15962 ft 401 kts 258°
2026-05-04 13:53 41.34124 28.22690 16594 ft 405 kts 258°
2026-05-04 13:54 41.32522 28.15496 17789 ft 414 kts 258°
2026-05-04 13:54 41.31700 28.11818 18410 ft 418 kts 257°
2026-05-04 13:54 41.30015 28.04292 19564 ft 428 kts 257°
2026-05-04 13:55 41.29172 28.00536 20143 ft 432 kts 257°
2026-05-04 13:55 41.27434 27.92802 21243 ft 440 kts 257°
2026-05-04 13:55 41.26562 27.88931 21789 ft 444 kts 257°
2026-05-04 13:56 41.25670 27.84978 22342 ft 448 kts 257°
2026-05-04 13:56 41.24775 27.81025 22881 ft 451 kts 257°
2026-05-04 13:56 41.22963 27.73027 24066 ft 453 kts 257°
2026-05-04 13:57 41.22060 27.69053 24548 ft 457 kts 257°
2026-05-04 13:57 41.21131 27.64969 25056 ft 460 kts 257°
2026-05-04 13:58 41.18330 27.52715 26484 ft 468 kts 256°
2026-05-04 13:58 41.16426 27.44420 27359 ft 474 kts 256°
2026-05-04 13:58 41.15460 27.40226 27768 ft 477 kts 256°
2026-05-04 13:59 41.14494 27.36031 28186 ft 480 kts 256°
2026-05-04 13:59 41.13519 27.31815 28557 ft 483 kts 255°
2026-05-04 13:59 41.11533 27.23241 29336 ft 488 kts 255°
2026-05-04 14:00 41.10529 27.18922 29704 ft 491 kts 255°
2026-05-04 14:00 41.08511 27.10257 30435 ft 496 kts 255°
2026-05-04 14:00 41.07489 27.05879 30779 ft 498 kts 255°
2026-05-04 14:01 41.06478 27.01558 31156 ft 500 kts 255°
2026-05-04 14:01 41.05447 26.97171 31692 ft 498 kts 254°
2026-05-04 14:01 41.03401 26.88490 32835 ft 492 kts 254°
2026-05-04 14:02 41.02381 26.84171 33381 ft 489 kts 254°
2026-05-04 14:02 41.01378 26.79930 33872 ft 487 kts 255°
2026-05-04 14:02 41.00370 26.75676 34354 ft 485 kts 254°
2026-05-04 14:02 40.99364 26.71432 34838 ft 482 kts 254°
2026-05-04 14:03 40.98355 26.67188 35157 ft 480 kts 254°
2026-05-04 14:03 40.97371 26.63056 35451 ft 478 kts 254°
2026-05-04 14:03 40.96365 26.58840 35701 ft 476 kts 254°
2026-05-04 14:03 40.95381 26.54727 35923 ft 476 kts 254°
2026-05-04 14:04 40.93418 26.46441 36307 ft 473 kts 258°
2026-05-04 14:04 40.92863 26.42130 36586 ft 469 kts 268°
2026-05-04 14:04 40.92856 26.37880 36901 ft 464 kts 278°
2026-05-04 14:05 40.93697 26.29509 37461 ft 460 kts 281°
2026-05-04 14:05 40.94163 26.25314 37729 ft 460 kts 281°
2026-05-04 14:05 40.94616 26.21133 38006 ft 459 kts 280°
2026-05-04 14:06 40.95055 26.16990 38251 ft 458 kts 280°
2026-05-04 14:06 40.95491 26.12812 38502 ft 457 kts 280°
2026-05-04 14:06 40.95913 26.08697 38718 ft 457 kts 280°
2026-05-04 14:06 40.96337 26.04532 38885 ft 458 kts 280°
2026-05-04 14:07 40.96761 26.00354 39102 ft 458 kts 280°
2026-05-04 14:07 40.97179 25.96185 39278 ft 459 kts 280°
2026-05-04 14:07 40.97597 25.92013 39406 ft 460 kts 280°
2026-05-04 14:07 40.98013 25.87849 39539 ft 461 kts 280°
2026-05-04 14:08 40.98430 25.83654 39691 ft 462 kts 280°
2026-05-04 14:08 40.98848 25.79422 39852 ft 462 kts 280°
2026-05-04 14:08 40.99260 25.75243 40005 ft 463 kts 280°
2026-05-04 14:09 41.00497 25.62554 40047 ft 463 kts 280°
2026-05-04 14:10 41.01716 25.49916 40050 ft 463 kts 280°
2026-05-04 14:10 41.02523 25.41491 40052 ft 463 kts 280°
2026-05-04 14:11 41.03324 25.33049 40051 ft 462 kts 279°
2026-05-04 14:11 41.04510 25.20405 40049 ft 462 kts 279°
2026-05-04 14:12 41.05293 25.11981 40049 ft 462 kts 279°
2026-05-04 14:13 41.06454 24.99363 40043 ft 461 kts 279°
2026-05-04 14:13 41.07219 24.90961 40045 ft 461 kts 279°
2026-05-04 14:14 41.07980 24.82538 40052 ft 461 kts 279°
2026-05-04 14:14 41.09104 24.69961 40051 ft 460 kts 279°
2026-05-04 14:15 41.10585 24.53141 40052 ft 460 kts 279°
2026-05-04 14:16 41.11680 24.40530 40048 ft 460 kts 279°
2026-05-04 14:17 41.12760 24.27899 40051 ft 461 kts 279°
2026-05-04 14:18 41.13826 24.15318 40060 ft 459 kts 279°
2026-05-04 14:19 41.15221 23.98546 40059 ft 459 kts 279°
2026-05-04 14:19 41.15912 23.90154 40071 ft 458 kts 279°
2026-05-04 14:20 41.16589 23.81817 40075 ft 457 kts 279°
2026-05-04 14:20 41.17268 23.73417 40077 ft 458 kts 279°
2026-05-04 14:21 41.18268 23.60855 40082 ft 458 kts 279°
2026-05-04 14:21 41.18926 23.52511 40083 ft 457 kts 279°
2026-05-04 14:22 41.19579 23.44141 40087 ft 456 kts 279°
2026-05-04 14:22 41.20221 23.35830 40087 ft 455 kts 279°
2026-05-04 14:23 41.21176 23.23312 40082 ft 455 kts 279°
2026-05-04 14:24 41.21805 23.14981 40075 ft 455 kts 279°
2026-05-04 14:24 41.22425 23.06658 40075 ft 456 kts 279°
2026-05-04 14:25 41.23042 22.98317 40071 ft 455 kts 279°
2026-05-04 14:25 41.23951 22.85779 40073 ft 454 kts 279°
2026-05-04 14:26 41.24794 22.77555 40079 ft 451 kts 284°
2026-05-04 14:26 41.26291 22.69516 40087 ft 448 kts 290°
2026-05-04 14:27 41.28188 22.61701 40086 ft 446 kts 291°
2026-05-04 14:27 41.30114 22.53861 40084 ft 448 kts 291°
2026-05-04 14:28 41.32029 22.46008 40094 ft 448 kts 291°
2026-05-04 14:28 41.33933 22.38163 40096 ft 448 kts 291°
2026-05-04 14:29 41.38143 22.22649 40117 ft 444 kts 296°
2026-05-04 14:30 41.40543 22.15069 40110 ft 444 kts 296°
2026-05-04 14:31 41.44073 22.03715 40112 ft 444 kts 295°
2026-05-04 14:32 41.48722 21.88556 40126 ft 443 kts 296°
2026-05-04 14:32 41.51040 21.80955 40128 ft 443 kts 295°
2026-05-04 14:33 41.53364 21.73307 40123 ft 444 kts 296°
2026-05-04 14:33 41.55658 21.65739 40142 ft 444 kts 295°
2026-05-04 14:34 41.57962 21.58112 40143 ft 443 kts 296°
2026-05-04 14:34 41.60260 21.50481 40131 ft 442 kts 296°
2026-05-04 14:35 41.62536 21.42907 40135 ft 442 kts 296°
2026-05-04 14:35 41.64813 21.35308 40162 ft 442 kts 296°
2026-05-04 14:36 41.67086 21.27696 40148 ft 442 kts 295°
2026-05-04 14:36 41.69356 21.20069 40135 ft 442 kts 295°
2026-05-04 14:37 41.71619 21.12447 40160 ft 441 kts 295°
2026-05-04 14:37 41.73876 21.04826 40161 ft 441 kts 295°
2026-05-04 14:38 41.76126 20.97208 40151 ft 441 kts 295°
2026-05-04 14:38 41.78362 20.89608 40142 ft 440 kts 295°
2026-05-04 14:39 41.80598 20.81991 40138 ft 441 kts 295°
2026-05-04 14:39 41.82834 20.74346 40131 ft 441 kts 295°
2026-05-04 14:40 41.86164 20.62922 40125 ft 440 kts 295°
2026-05-04 14:40 41.88382 20.55292 40125 ft 440 kts 295°
2026-05-04 14:41 41.90588 20.47672 40129 ft 440 kts 295°
2026-05-04 14:42 41.94996 20.32378 40138 ft 440 kts 294°
2026-05-04 14:42 41.97199 20.24695 40136 ft 440 kts 294°
2026-05-04 14:43 41.99376 20.17086 40138 ft 440 kts 294°
2026-05-04 14:43 42.01560 20.09428 40139 ft 440 kts 294°
2026-05-04 14:44 42.03743 20.01756 40135 ft 441 kts 294°
2026-05-04 14:44 42.05921 19.94066 40134 ft 440 kts 294°
2026-05-04 14:45 42.08101 19.86353 40134 ft 440 kts 294°
2026-05-04 14:45 42.10258 19.78693 40130 ft 440 kts 294°
2026-05-04 14:46 42.12417 19.71004 40135 ft 439 kts 294°
2026-05-04 14:46 42.14562 19.63338 40138 ft 439 kts 294°
2026-05-04 14:47 42.16692 19.55698 40123 ft 438 kts 294°
2026-05-04 14:47 42.18832 19.47999 40120 ft 438 kts 294°
2026-05-04 14:48 42.20938 19.40351 40121 ft 438 kts 292°
2026-05-04 14:48 42.22654 19.32466 40108 ft 440 kts 286°
2026-05-04 14:49 42.23751 19.24389 40104 ft 442 kts 281°
2026-05-04 14:49 42.24565 19.16193 40099 ft 442 kts 281°
2026-05-04 14:50 42.25364 19.07987 40107 ft 442 kts 281°
2026-05-04 14:50 42.26159 18.99771 40120 ft 441 kts 281°
2026-05-04 14:51 42.26942 18.91643 40117 ft 440 kts 281°
2026-05-04 14:51 42.27723 18.83462 40117 ft 439 kts 281°
2026-05-04 14:52 42.28497 18.75308 40112 ft 438 kts 281°
2026-05-04 14:52 42.29265 18.67173 40110 ft 439 kts 281°
2026-05-04 14:53 42.30023 18.59057 40111 ft 439 kts 281°
2026-05-04 14:53 42.30778 18.50899 40110 ft 438 kts 281°
2026-05-04 14:54 42.31527 18.42759 40118 ft 437 kts 281°
2026-05-04 14:54 42.32266 18.34668 40114 ft 436 kts 280°
2026-05-04 14:55 42.33003 18.26525 40114 ft 436 kts 280°
2026-05-04 14:55 42.33733 18.18414 40107 ft 436 kts 280°
2026-05-04 14:56 42.34452 18.10327 40111 ft 435 kts 280°
2026-05-04 14:56 42.35170 18.02201 40105 ft 435 kts 280°
2026-05-04 14:57 42.35876 17.94140 40103 ft 435 kts 280°
2026-05-04 14:57 42.36583 17.86031 40107 ft 434 kts 280°
2026-05-04 14:58 42.37280 17.77937 40103 ft 433 kts 280°
2026-05-04 14:58 42.37967 17.69912 40100 ft 433 kts 279°
2026-05-04 14:59 42.38650 17.61843 40103 ft 432 kts 279°
2026-05-04 15:00 42.39663 17.49749 40102 ft 432 kts 279°
2026-05-04 15:00 42.40331 17.41707 40102 ft 432 kts 279°
2026-05-04 15:01 42.41322 17.29634 40100 ft 432 kts 279°
2026-05-04 15:01 42.41977 17.21563 40099 ft 431 kts 279°
2026-05-04 15:02 42.42621 17.13554 40094 ft 430 kts 278°
2026-05-04 15:02 42.43263 17.05515 40105 ft 430 kts 278°
2026-05-04 15:03 42.43893 16.97525 40101 ft 429 kts 278°
2026-05-04 15:03 42.44520 16.89526 40098 ft 428 kts 278°
2026-05-04 15:04 42.45139 16.81531 40102 ft 427 kts 278°
2026-05-04 15:04 42.45750 16.73568 40104 ft 427 kts 278°
2026-05-04 15:05 42.46355 16.65613 40094 ft 426 kts 278°
2026-05-04 15:05 42.46955 16.57663 40098 ft 426 kts 278°
2026-05-04 15:06 42.47549 16.49726 40095 ft 425 kts 278°
2026-05-04 15:07 42.48430 16.37788 40095 ft 425 kts 278°
2026-05-04 15:07 42.49005 16.29856 40083 ft 426 kts 278°
2026-05-04 15:08 42.49580 16.21896 40070 ft 426 kts 278°
2026-05-04 15:08 42.50145 16.13952 40067 ft 425 kts 278°
2026-05-04 15:09 42.50617 16.06029 40067 ft 424 kts 275°
2026-05-04 15:09 42.50574 15.98029 40065 ft 425 kts 271°
2026-05-04 15:10 42.50202 15.86050 40060 ft 426 kts 270°
2026-05-04 15:11 42.49812 15.74079 40058 ft 425 kts 271°
2026-05-04 15:11 42.49546 15.66105 40055 ft 424 kts 271°
2026-05-04 15:12 42.49275 15.58161 40055 ft 423 kts 271°
2026-05-04 15:12 42.49001 15.50256 40053 ft 423 kts 271°
2026-05-04 15:13 42.48719 15.42303 40043 ft 423 kts 271°
2026-05-04 15:13 42.48434 15.34474 39577 ft 416 kts 270°
2026-05-04 15:13 42.48290 15.30538 38950 ft 415 kts 270°
2026-05-04 15:14 42.48147 15.26646 38517 ft 414 kts 270°
2026-05-04 15:14 42.48005 15.22766 37921 ft 414 kts 270°
2026-05-04 15:14 42.47861 15.18904 37284 ft 414 kts 269°
2026-05-04 15:14 42.47712 15.14974 36583 ft 416 kts 269°
2026-05-04 15:15 42.47564 15.11100 35857 ft 418 kts 269°
2026-05-04 15:15 42.47412 15.07159 35086 ft 421 kts 269°
2026-05-04 15:15 42.47258 15.03190 34301 ft 424 kts 268°
2026-05-04 15:16 42.46941 14.95246 32752 ft 430 kts 268°
2026-05-04 15:16 42.46776 14.91161 31899 ft 435 kts 269°
2026-05-04 15:16 42.46442 14.82965 30180 ft 444 kts 268°
2026-05-04 15:17 42.46269 14.78798 29613 ft 441 kts 268°
2026-05-04 15:17 42.45926 14.70650 28653 ft 432 kts 268°
2026-05-04 15:17 42.45756 14.66632 28164 ft 428 kts 268°
2026-05-04 15:18 42.45583 14.62602 27654 ft 425 kts 268°
2026-05-04 15:18 42.45413 14.58667 27159 ft 421 kts 268°
2026-05-04 15:18 42.45242 14.54727 26659 ft 418 kts 268°
2026-05-04 15:19 42.44899 14.46957 25658 ft 412 kts 268°
2026-05-04 15:19 42.44729 14.43115 25152 ft 409 kts 268°
2026-05-04 15:19 42.44184 14.35532 24144 ft 405 kts 260°
2026-05-04 15:20 42.43414 14.31896 23655 ft 404 kts 251°
2026-05-04 15:20 42.42283 14.28453 23185 ft 403 kts 244°
2026-05-04 15:20 42.40916 14.25146 22718 ft 400 kts 242°
2026-05-04 15:20 42.39524 14.21890 22269 ft 398 kts 242°
2026-05-04 15:21 42.38153 14.18691 21830 ft 394 kts 242°
2026-05-04 15:21 42.36792 14.15503 21397 ft 391 kts 241°
2026-05-04 15:21 42.34088 14.09172 20509 ft 385 kts 241°
2026-05-04 15:22 42.32762 14.06071 20067 ft 382 kts 241°
2026-05-04 15:22 42.31439 14.02979 19632 ft 379 kts 241°
2026-05-04 15:22 42.28828 13.96892 18762 ft 372 kts 241°
2026-05-04 15:23 42.27526 13.93859 18339 ft 370 kts 241°
2026-05-04 15:23 42.26259 13.90905 17916 ft 367 kts 241°
2026-05-04 15:23 42.24973 13.87912 17492 ft 365 kts 241°
2026-05-04 15:23 42.23707 13.84966 17052 ft 364 kts 241°
2026-05-04 15:24 42.21190 13.79115 16288 ft 359 kts 240°
2026-05-04 15:24 42.18850 13.73189 15874 ft 359 kts 245°
2026-05-04 15:25 42.17853 13.70070 15751 ft 359 kts 248°
2026-05-04 15:25 42.16969 13.66960 15618 ft 359 kts 249°
2026-05-04 15:25 42.16083 13.63822 15472 ft 358 kts 249°
2026-05-04 15:26 42.14321 13.57582 15170 ft 357 kts 249°
2026-05-04 15:26 42.13436 13.54448 15027 ft 356 kts 249°
2026-05-04 15:26 42.11676 13.48241 14733 ft 354 kts 249°
2026-05-04 15:27 42.10805 13.45176 14588 ft 353 kts 249°
2026-05-04 15:27 42.09069 13.39079 14295 ft 339 kts 249°
2026-05-04 15:28 42.07429 13.33325 14009 ft 321 kts 248°
2026-05-04 15:28 42.06638 13.30581 13866 ft 312 kts 247°
2026-05-04 15:28 42.04756 13.25485 13580 ft 296 kts 239°
2026-05-04 15:29 42.03711 13.23125 13427 ft 289 kts 239°
2026-05-04 15:30 41.99623 13.13900 12963 ft 282 kts 242°
2026-05-04 15:30 41.97148 13.06855 12306 ft 283 kts 245°
2026-05-04 15:31 41.95494 13.02051 11985 ft 284 kts 244°
2026-05-04 15:31 41.94664 12.99646 11826 ft 282 kts 244°
2026-05-04 15:32 41.92197 12.92515 11417 ft 281 kts 244°
2026-05-04 15:32 41.90551 12.87778 11127 ft 280 kts 244°
2026-05-04 15:33 41.88905 12.83039 10835 ft 279 kts 244°
2026-05-04 15:34 41.86454 12.75986 10405 ft 278 kts 244°
2026-05-04 15:34 41.85641 12.73647 10264 ft 278 kts 244°
2026-05-04 15:34 41.84000 12.68941 9972 ft 275 kts 243°
2026-05-04 15:35 41.82418 12.64404 9672 ft 264 kts 243°
2026-05-04 15:35 41.81634 12.62162 9531 ft 264 kts 244°
2026-05-04 15:35 41.81168 12.59816 9386 ft 269 kts 269°
2026-05-04 15:36 41.82921 12.55426 9153 ft 279 kts 313°
2026-05-04 15:36 41.84320 12.53602 9029 ft 279 kts 313°
2026-05-04 15:36 41.85702 12.51785 8905 ft 279 kts 315°
2026-05-04 15:37 41.87152 12.50091 8782 ft 279 kts 319°
2026-05-04 15:37 41.88666 12.48429 8657 ft 279 kts 319°
2026-05-04 15:37 41.90184 12.46789 8531 ft 278 kts 319°
2026-05-04 15:37 41.91675 12.45178 8369 ft 278 kts 320°
2026-05-04 15:38 41.93169 12.43557 8146 ft 276 kts 319°
2026-05-04 15:38 41.94659 12.41935 7890 ft 275 kts 320°
2026-05-04 15:38 41.96150 12.40309 7594 ft 277 kts 320°
2026-05-04 15:38 41.97638 12.38684 7284 ft 276 kts 320°
2026-05-04 15:39 41.99108 12.37079 6960 ft 267 kts 320°
2026-05-04 15:39 42.00534 12.35514 6659 ft 259 kts 320°
2026-05-04 15:39 42.03249 12.32522 6087 ft 249 kts 319°
2026-05-04 15:40 42.04588 12.31043 5793 ft 246 kts 319°
2026-05-04 15:40 42.05870 12.29565 5499 ft 241 kts 309°
2026-05-04 15:40 42.06637 12.27627 5171 ft 232 kts 275°
2026-05-04 15:40 42.06633 12.25540 4880 ft 221 kts 259°
2026-05-04 15:41 42.06385 12.23530 4624 ft 217 kts 256°
2026-05-04 15:41 42.06088 12.21524 4313 ft 221 kts 255°
2026-05-04 15:41 42.05765 12.19487 4016 ft 220 kts 251°
2026-05-04 15:41 42.05139 12.17708 3977 ft 206 kts 234°
2026-05-04 15:42 42.04319 12.16195 3964 ft 193 kts 221°
2026-05-04 15:42 42.03200 12.15303 3872 ft 183 kts 198°
2026-05-04 15:42 42.02006 12.14811 3653 ft 181 kts 188°
2026-05-04 15:42 42.00739 12.14773 3380 ft 182 kts 172°
2026-05-04 15:43 41.99507 12.15108 3151 ft 181 kts 165°
2026-05-04 15:43 41.98303 12.15588 2915 ft 181 kts 162°
2026-05-04 15:43 41.97110 12.16100 2672 ft 181 kts 162°
2026-05-04 15:43 41.95899 12.16621 2499 ft 178 kts 162°
2026-05-04 15:44 41.94717 12.17124 2497 ft 181 kts 162°
2026-05-04 15:44 41.93507 12.17634 2418 ft 181 kts 163°
2026-05-04 15:44 41.92325 12.18129 2183 ft 175 kts 163°
2026-05-04 15:44 41.91186 12.18605 1967 ft 168 kts 163°
2026-05-04 15:45 41.90086 12.19065 1746 ft 162 kts 163°
2026-05-04 15:45 41.89036 12.19504 1539 ft 155 kts 163°
2026-05-04 15:45 41.88024 12.19928 1340 ft 148 kts 163°
2026-05-04 15:45 41.87064 12.20329 1151 ft 141 kts 164°
2026-05-04 15:46 41.86147 12.20713 967 ft 134 kts 164°
2026-05-04 15:46 41.85263 12.21083 803 ft 134 kts 164°
2026-05-04 15:46 41.84371 12.21451 657 ft 134 kts 163°
2026-05-04 15:46 41.83476 12.21820 515 ft 134 kts 164°
2026-05-04 15:47 41.82574 12.22190 373 ft 134 kts 163°
2026-05-04 15:47 41.81681 12.22580 210 ft 134 kts 163°
2026-05-04 15:47 41.80798 12.22954 52 ft 133 kts 163°
2026-05-04 15:47 41.79951 12.23303 20 ft 107 kts 165°
2026-05-04 15:48 41.79442 12.23523 18 ft 58 kts 162°
2026-05-04 15:48 41.79148 12.23679 19 ft 35 kts 140°
2026-05-04 15:48 41.78973 12.23928 20 ft 0 kts 121°
2026-05-04 15:51 41.78970 12.23933 20 ft 2 kts 121°
2026-05-04 15:51 41.78959 12.23977 19 ft 7 kts 99°
2026-05-04 15:51 41.78982 12.24033 19 ft 8 kts 21°
2026-05-04 15:52 41.79053 12.24015 18 ft 12 kts 343°
2026-05-04 15:52 41.79146 12.23976 18 ft 15 kts 342°
2026-05-04 15:52 41.79258 12.23929 18 ft 18 kts 342°
2026-05-04 15:52 41.79386 12.23874 18 ft 20 kts 342°
2026-05-04 15:53 41.79523 12.23816 18 ft 20 kts 341°
2026-05-04 15:53 41.79631 12.23774 18 ft 15 kts 360°
2026-05-04 15:53 41.79702 12.23854 18 ft 14 kts 70°
2026-05-04 15:53 41.79731 12.23987 18 ft 14 kts 71°
2026-05-04 15:54 41.79766 12.24121 18 ft 15 kts 71°
2026-05-04 15:54 41.79803 12.24261 19 ft 16 kts 70°
2026-05-04 15:54 41.79834 12.24390 18 ft 11 kts 85°
2026-05-04 15:54 41.79805 12.24452 19 ft 7 kts 165°
2026-05-04 15:55 41.79750 12.24470 20 ft 8 kts 161°
2026-05-04 15:55 41.79697 12.24494 21 ft 8 kts 159°
2026-05-04 15:55 41.79640 12.24523 21 ft 9 kts 160°
2026-05-04 15:55 41.79605 12.24572 21 ft 3 kts 94°
2026-05-04 15:56 41.79607 12.24592 21 ft 3 kts 73°
2026-05-04 15:56 41.79619 12.24628 21 ft 3 kts 67°
2026-05-04 15:56 41.79619 12.24630 21 ft 0 kts 67°